Tracking 19224 objects as of 22-Jul-2018
HD Live streaming from Space Station
objects crossing your sky now

FENGYUN 1C DEB

Track FENGYUN 1C DEB now!
10-day predictions


NORAD ID: 30280
Int'l Code: 1999-025YR
Perigee: 855.1 km
Apogee: 971.1 km
Inclination: 99.0 °
Period: 103.1 minutes
Semi major axis: 7284 km
RCS: 0.043 m2 (small)
Launch date: May 10, 1999
Source: People's Republic of China (PRC)
Launch site: Taiyaun Space Center, China (TSC)

Note: This is SATELLITE DEBRIS
aabbcc
Your satellite tracking list
Your tracking list is empty




NASA's NSSDC Master Catalog

Two Line Element Set (TLE):
1 30280U 99025YR  18202.72906050 -.00000066  00000-0 -15555-4 0  9999
2 30280  98.9866 260.5916 0079566 231.2657 252.0469 13.96493237587059
Source of the keplerian elements: AFSPC